Espace membre
Imprimable
Challenges > Delhalle - Amay, 11/09/2016, BEL - Le Semi-Vert d'Amay
Liste des rapports > Delhalle - Classement
Recherche: Page: [1]
27 Entrées
 
Les réclamations ne sont plus acceptées, les résultats sont considérés comme définitifs.
RangNrNomAgeIOCLigueEquipeRéelTempsTkmMoy.ScrPtsLocalité
1.125FVAN DER ZWALMEN SABINE36BELUSBWMYSTERE1:32:101:32:144:23 13.7223931LASNE
2.3195FVANDEWEYER LUDIVINE38BELSERUNNERS1:42:181:42:384:52 12.3368789FLÉMALLE
3.907FTHIRY MARIE34BELRCNAMUR1:44:241:44:304:58 12.1181758NANINNE
4.3351FNICASSIO VANESSA36BGRJIA1:51:041:51:185:17 11.37119664
5.3228FROCHUS ELENE33BEL1:53:591:54:215:26 11.07136624ANTHEIT
6.3304FTHEYS SOPHIE26BEL1:54:261:55:125:28 10.99144612
7.3383FDEFERIERE CAROLE38BELJAMES1:58:041:58:215:37 10.70167561
8.3309FMATAGNE SOPHIE39BEL2:00:192:00:245:43 10.51183529
9.3200FLEQUEUX SARAH37BELOCAN2:01:332:02:155:48 10.35197506BAS-OHA
10.3323FBEEKHUIS JENNIFER37BELOCAN2:02:052:02:475:50 10.31200499
11.3390FLANNOY CECILE36BEL2:02:502:03:375:52 10.24202492
12.3194FDUNCAN STRACY26BEL2:03:162:03:385:52 10.24203487HUCCORGNE
13.3328FLALOUX HELENE25BELFRELONS2:04:302:05:105:56 10.11217465
14.3165FTHIRION CAMILLE27BELLES FRELONS2:05:042:05:445:58 10.07220458MODAVE
15.3330FMORTELE MALORY25BEL2:08:192:08:196:05 9.86240415
16.3310FSTICKER MARGOT25BELSTRAT TODAY2:09:102:09:356:09 9.77247402
17.3376FSTALPORT CAROLE32BELLES FRELONS2:10:412:11:216:14 9.64255384
18.3308FLUISETTO MOIRA32BEL2:14:252:14:476:24 9.39280334
19.3171FTHYS RACHEL38BEL2:24:052:24:336:52 8.76316234VAUX ET BORSET
20.3325FGOEMAERE DOLORES33BEL2:24:382:25:116:53 8.72321226
21.3357FROSKAM JUSTINE28BEL2:24:542:25:546:55 8.68324222
22.36FMESSAOUDI NADIA29BELMYSTERE2:26:532:27:247:00 8.59328205BRUXELLES
23.3340FPRAILLET PAULINE29BELLES EOLES2:26:492:27:337:00 8.58332202
24.3274FVERKAEREN CHARLINE37BEL2:28:092:28:547:04 8.50335190
25.3236FDRIESSEN JOANNIC38BELOCAN2:29:572:30:457:09 8.40344171HUY
26.3314FSTICKER MARJORIE24BELOTC2:48:432:49:088:02 7.4836537
27.3339FVANNESTE MEGGIE28BELLES FRELONS2:49:452:50:538:06 7.4136729
DNF: abandon; DSQ: disqualifié; Vitesse en km/h
Page: [1]